Probability
0 0 0 0 0 0 0 0 0 0 0 0 0 0 0 0 0 0 0 6 13 13 10 10 10 13 13 13 16 16 10 13 16 16 19 19 23 13 13 10 19 19 16
0 0 0 0 0 0 0 0 0 0 0 0 0 0 0 0 0 0 0 0 3 10 10 6 6 10 10 10 10 10 10 10 13 13 19 19 13 13 16 13 16 16 16
0 0 0 0 0 0 0 0 0 0 0 0 0 0 0 0 0 0 0 0 0 6 10 3 6 6 6 0 3 10 13 10 10 10 13 13 16 16 6 16 13 16 13
0 0 0 0 0 0 0 0 0 0 0 0 0 0 0 0 0 0 0 0 0 0 0 3 3 6 6 3 3 6 3 3 3 6 10 13 10 16 16 13 13 10 13
0 0 0 0 0 0 0 0 0 0 0 0 0 0 0 0 0 0 0 0 0 0 0 0 0 3 6 0 3 3 6 6 6 3 6 10 6 10 10 10 6 13 10
0 0 0 0 0 0 0 0 0 0 0 0 0 0 0 0 0 0 0 0 0 0 0 0 0 0 3 3 0 3 6 6 6 6 6 6 6 10 10 10 10 6 3
0 0 0 0 0 0 0 0 0 0 0 0 0 0 0 0 0 0 0 0 0 0 0 0 0 0 0 3 3 3 3 3 6 6 10 6 13 10 10 6 6 6 3
0 0 0 0 0 0 0 0 0 0 0 0 0 0 0 0 0 0 0 0 0 0 0 0 0 0 0 0 0 0 3 3 3 3 3 6 13 10 10 6 10 6 0
0 0 0 0 0 0 0 0 0 0 0 0 0 0 0 0 0 0 0 0 0 0 0 0 0 0 0 0 0 0 0 0 0 6 0 6 6 10 13 10 6 3 3
0 0 0 0 0 0 0 0 0 0 0 0 0 0 0 0 0 0 0 0 0 0 0 0 0 0 0 0 0 0 0 0 0 0 0 3 3 3 3 3 3 6 6
0 0 0 0 0 0 0 0 0 0 0 0 0 0 0 0 0 0 0 0 0 0 0 0 0 0 0 0 0 0 0 0 0 0 0 3 3 6 6 3 6 6 6
0 0 0 0 0 0 0 0 0 0 0 0 0 0 0 0 0 0 0 0 0 0 0 0 0 0 0 0 0 0 0 0 0 0 0 0 3 6 3 3 6 6 6
0 0 0 0 0 0 0 0 0 0 0 0 0 0 0 0 0 0 0 0 0 0 0 0 0 0 0 0 0 0 0 0 0 0 0 0 0 3 3 3 3 3 6
0 0 0 0 0 0 0 0 0 0 0 0 0 0 0 0 0 0 0 0 0 0 0 0 0 0 0 0 0 0 0 0 0 0 0 0 0 0 3 3 3 3 6
0 0 0 0 0 0 0 0 0 0 0 0 0 0 0 0 0 0 0 0 0 0 0 0 0 0 0 0 0 0 0 0 0 0 0 0 0 0 0 3 3 3 3
0 0 0 0 0 0 0 0 0 0 0 0 0 0 0 0 0 0 0 0 0 0 0 0 0 0 0 0 0 0 0 0 0 0 0 0 0 0 0 0 0 0 0
0 0 0 0 0 0 0 0 0 0 0 0 0 0 0 0 0 0 0 0 0 0 0 0 0 0 0 0 0 0 0 0 0 0 0 0 0 0 0 0 0 0 0
0 0 0 0 0 0 0 0 0 0 0 0 0 0 0 0 0 0 0 0 0 0 0 0 0 0 0 0 0 0 0 0 0 0 0 0 0 0 0 0 0 0 0
0 0 0 0 0 0 0 0 0 0 0 0 0 0 0 0 0 0 0 0 0 0 0 0 0 0 0 0 0 0 0 0 0 0 0 0 0 0 0 0 0 0 0
0 0 0 0 0 0 0 0 0 0 0 0 0 0 0 0 0 0 0 0 0 0 0 0 0 0 0 0 0 0 0 0 0 0 0 0 0 0 0 0 0 0 0
0 0 0 0 0 0 0 0 0 0 0 0 0 0 0 0 0 0 0 0 0 0 0 0 0 0 0 0 0 0 0 0 0 0 0 0 0 0 0 0 0 0 0
0 0 0 0 0 0 0 0 0 0 0 0 0 0 0 0 0 0 0 0 0 0 0 0 0 0 0 0 0 0 0 0 0 0 0 0 0 0 0 0 0 0 0
0 0 0 0 0 0 0 0 0 0 0 0 0 0 0 0 0 0 0 0 0 0 0 0 0 0 0 0 0 0 0 0 0 0 0 0 0 0 0 0 0 0 0
0 0 0 0 0 0 0 0 0 0 0 0 0 0 0 0 0 0 0 0 0 0 0 0 0 0 0 0 0 0 0 0 0 0 0 0 0 0 0 0 0 0 0
0 0 0 0 0 0 0 0 0 0 0 0 0 0 0 0 0 0 0 0 0 0 0 0 0 0 0 0 0 0 0 0 0 0 0 0 0 0 0 0 0 0 0
0 0 0 0 0 0 0 0 0 0 0 0 0 0 0 0 0 0 0 0 0 0 0 0 0 0 0 0 0 0 0 0 0 0 0 0 0 0 0 0 0 0 0
Height
5847 5846 5846 5846 5846 5846 5846 5846 5846 5846 5846 5846 5846 5846 5846 5846 5845 5845 5845 5845 5845 5844 5844 5844 5843 5843 5842 5841 5841 5841 5840 5840 5840 5840 5839 5839 5839 5839 5839 5839 5839 5839 5839
5845 5844 5844 5844 5844 5844 5844 5844 5844 5844 5844 5844 5843 5843 5843 5843 5843 5843 5843 5842 5842 5842 5841 5841 5840 5840 5839 5838 5838 5837 5837 5837 5836 5836 5836 5836 5835 5835 5835 5836 5836 5836 5836
5842 5842 5842 5842 5842 5842 5841 5841 5842 5842 5842 5841 5841 5841 5840 5840 5840 5840 5840 5840 5839 5839 5838 5838 5837 5836 5836 5835 5834 5834 5833 5833 5833 5832 5832 5832 5832 5832 5832 5832 5832 5833 5833
5840 5840 5839 5839 5839 5839 5839 5839 5839 5839 5839 5839 5838 5838 5838 5838 5837 5837 5837 5837 5836 5836 5835 5835 5834 5833 5833 5832 5831 5830 5830 5829 5829 5829 5828 5828 5828 5828 5828 5828 5829 5829 5829
5837 5837 5837 5837 5837 5837 5837 5837 5837 5837 5836 5836 5836 5835 5835 5835 5834 5834 5834 5833 5833 5832 5832 5831 5831 5830 5829 5828 5827 5827 5826 5826 5825 5825 5825 5824 5824 5824 5825 5825 5825 5825 5826
5835 5834 5834 5834 5834 5834 5834 5834 5834 5834 5834 5833 5833 5832 5832 5831 5831 5831 5830 5830 5829 5829 5828 5827 5827 5826 5826 5825 5824 5823 5823 5822 5822 5821 5821 5821 5820 5821 5821 5821 5821 5822 5822
5832 5831 5831 5831 5830 5830 5831 5831 5831 5831 5831 5830 5830 5830 5829 5829 5828 5827 5827 5826 5825 5825 5824 5823 5823 5822 5822 5821 5820 5820 5819 5819 5818 5818 5817 5817 5816 5816 5817 5817 5817 5818 5818
5828 5828 5828 5827 5827 5827 5827 5827 5827 5827 5827 5827 5827 5827 5826 5826 5825 5824 5823 5822 5821 5821 5820 5819 5819 5818 5817 5817 5817 5816 5816 5815 5815 5814 5814 5813 5812 5812 5813 5813 5814 5814 5815
5825 5824 5824 5824 5823 5823 5823 5824 5824 5824 5824 5824 5823 5823 5823 5822 5821 5820 5819 5818 5817 5816 5815 5815 5814 5813 5813 5812 5812 5812 5812 5811 5811 5811 5810 5808 5808 5809 5809 5810 5810 5810 5811
5821 5821 5820 5820 5819 5819 5819 5819 5820 5820 5820 5820 5819 5819 5819 5818 5817 5817 5815 5814 5813 5812 5811 5810 5809 5809 5808 5808 5808 5808 5808 5807 5806 5806 5806 5805 5805 5805 5806 5806 5806 5807 5807
5818 5817 5817 5816 5816 5815 5815 5815 5815 5815 5816 5815 5815 5815 5814 5813 5813 5812 5811 5810 5808 5807 5806 5806 5805 5804 5804 5804 5804 5804 5804 5804 5803 5803 5802 5802 5802 5802 5802 5802 5803 5803 5803
5814 5813 5813 5812 5811 5811 5811 5811 5811 5811 5811 5811 5811 5810 5810 5809 5808 5807 5806 5805 5804 5803 5802 5801 5800 5800 5800 5799 5799 5799 5800 5799 5799 5799 5798 5798 5798 5798 5798 5798 5798 5799 5799
5810 5810 5809 5808 5807 5806 5806 5806 5806 5806 5806 5806 5806 5805 5805 5804 5803 5802 5801 5800 5800 5799 5798 5797 5796 5796 5795 5795 5794 5794 5795 5795 5795 5795 5794 5794 5794 5793 5793 5793 5794 5794 5794
5806 5805 5804 5803 5802 5802 5801 5801 5801 5801 5801 5801 5800 5800 5799 5798 5797 5796 5796 5795 5795 5794 5793 5793 5792 5791 5791 5790 5790 5790 5791 5791 5791 5790 5790 5789 5789 5789 5789 5789 5789 5789 5789
5801 5800 5799 5798 5798 5797 5796 5796 5796 5795 5795 5795 5794 5794 5793 5792 5792 5791 5790 5790 5790 5789 5789 5788 5787 5786 5786 5786 5786 5786 5786 5786 5786 5786 5786 5785 5785 5785 5784 5784 5784 5784 5784
5796 5795 5794 5793 5792 5791 5790 5790 5790 5790 5790 5789 5789 5788 5787 5787 5786 5785 5785 5785 5784 5784 5784 5783 5783 5782 5781 5781 5781 5781 5781 5782 5782 5781 5781 5781 5781 5781 5780 5779 5779 5779 5779
5790 5789 5788 5787 5786 5785 5784 5784 5784 5784 5784 5784 5783 5783 5782 5781 5780 5780 5779 5779 5778 5778 5778 5778 5777 5777 5776 5776 5776 5776 5776 5777 5777 5776 5776 5776 5776 5776 5775 5775 5774 5774 5774
5784 5783 5782 5781 5780 5779 5778 5778 5778 5778 5778 5778 5777 5777 5776 5775 5774 5774 5773 5773 5773 5772 5772 5772 5772 5771 5771 5771 5771 5771 5771 5772 5772 5771 5771 5771 5771 5771 5770 5770 5769 5769 5769
5777 5776 5776 5774 5774 5773 5773 5772 5772 5772 5772 5772 5771 5771 5770 5769 5768 5768 5767 5767 5767 5766 5766 5766 5766 5765 5765 5765 5765 5765 5765 5766 5766 5766 5766 5766 5766 5765 5765 5765 5765 5764 5764
5771 5770 5769 5768 5767 5767 5766 5766 5766 5766 5766 5766 5765 5764 5764 5762 5762 5761 5761 5760 5760 5760 5759 5759 5759 5759 5759 5759 5759 5760 5760 5760 5760 5760 5760 5760 5760 5760 5760 5760 5760 5760 5760
5764 5763 5762 5761 5760 5760 5760 5760 5760 5759 5759 5759 5758 5757 5757 5756 5755 5755 5754 5754 5753 5753 5753 5752 5753 5753 5753 5753 5753 5754 5754 5754 5754 5754 5754 5754 5755 5755 5754 5754 5755 5755 5755
5757 5756 5755 5754 5754 5753 5753 5753 5752 5752 5752 5751 5751 5750 5750 5749 5748 5748 5747 5747 5747 5747 5746 5746 5746 5746 5747 5747 5747 5747 5747 5748 5748 5749 5748 5748 5748 5749 5749 5749 5749 5749 5749
5750 5749 5748 5747 5746 5746 5745 5745 5744 5744 5744 5744 5743 5743 5742 5742 5741 5741 5741 5740 5740 5740 5740 5740 5740 5740 5740 5741 5741 5741 5741 5741 5741 5741 5741 5742 5742 5742 5742 5742 5742 5742 5742
5743 5742 5740 5739 5739 5738 5737 5737 5737 5737 5736 5736 5735 5735 5735 5734 5734 5734 5734 5734 5734 5733 5733 5733 5733 5734 5734 5734 5734 5734 5734 5734 5734 5734 5734 5735 5735 5735 5735 5735 5735 5735 5736
5737 5735 5734 5732 5731 5730 5730 5729 5729 5729 5728 5728 5728 5727 5727 5727 5727 5726 5726 5726 5726 5726 5726 5726 5726 5726 5726 5727 5727 5727 5727 5727 5727 5727 5727 5728 5728 5728 5728 5728 5728 5728 5728
5730 5728 5727 5725 5724 5723 5722 5721 5721 5720 5720 5720 5720 5719 5719 5719 5718 5718 5718 5718 5719 5719 5718 5719 5719 5719 5719 5720 5720 5720 5720 5720 5720 5720 5720 5720 5721 5721 5721 5721 5721 5721 5721
Wind_Speed
10 11 10 11 11 10 10 11 10 10 10 10 10 11 10 11 10 10 10 10 10 11 11 12 13 14 14 15 15 15 15 16 15 15 15 15 14 14 14 14 14 14 13
10 10 10 10 11 11 11 11 10 10 10 11 11 11 11 11 11 11 11 11 11 12 12 12 13 14 15 15 16 16 15 15 15 15 15 15 14 14 13 14 14 13 13
10 10 10 9 10 10 11 11 10 10 10 11 11 12 11 11 11 12 12 12 12 12 13 13 13 14 14 15 15 15 15 15 14 14 15 15 14 13 13 14 14 13 13
10 10 10 10 10 10 10 10 10 11 11 11 11 11 11 11 12 12 12 13 13 14 14 14 14 14 14 14 14 14 14 15 15 15 15 14 14 14 14 14 14 14 14
10 10 11 11 11 11 10 10 10 10 10 11 11 11 12 11 11 12 13 13 14 14 15 15 15 15 15 14 13 14 13 14 14 15 14 14 14 14 14 14 14 14 14
11 11 11 11 11 11 11 11 11 11 11 11 11 12 12 13 12 13 13 14 14 15 15 15 15 15 15 15 14 14 13 13 13 13 14 14 14 14 14 15 14 14 14
12 12 11 12 12 12 12 12 11 11 11 12 12 13 13 13 13 13 14 14 15 15 16 16 16 15 15 15 14 13 13 13 14 14 14 14 14 14 14 14 14 14 14
13 12 12 12 12 12 12 12 12 12 12 12 13 13 13 13 13 14 15 15 15 15 16 16 16 16 16 15 14 13 13 13 14 13 14 14 13 14 14 14 14 14 14
12 13 12 12 12 13 13 12 12 13 13 13 13 13 13 13 14 14 15 15 15 16 16 16 16 16 15 15 14 13 13 13 13 13 13 12 13 14 14 14 13 13 13
12 13 13 13 13 14 14 13 13 13 13 14 14 15 15 15 15 15 16 16 16 16 16 16 16 15 15 15 14 13 13 13 12 13 14 13 14 14 14 13 14 14 14
13 14 14 14 14 14 15 14 14 14 14 15 15 16 16 17 17 17 17 17 16 16 16 16 15 15 15 15 15 14 14 13 13 13 14 13 14 14 14 14 14 14 14
14 15 15 16 15 15 15 15 15 16 15 16 16 17 17 17 18 17 17 17 16 16 16 16 16 15 15 15 15 15 14 14 13 13 13 13 14 14 14 14 15 14 14
15 15 16 16 16 16 16 16 16 17 17 16 17 17 18 18 18 18 18 16 16 16 16 16 16 16 16 15 15 15 14 14 14 13 14 15 14 14 14 14 15 15 15
16 16 17 17 17 17 17 17 17 17 17 17 17 17 18 18 18 18 17 17 16 16 16 17 17 17 16 16 15 15 15 15 15 15 14 13 13 14 14 14 15 15 16
18 18 18 18 18 18 18 19 19 19 18 18 18 18 18 18 19 18 18 18 17 16 16 16 16 16 16 16 16 16 16 16 16 16 15 14 14 14 13 14 15 16 16
20 20 20 19 19 19 19 20 20 19 19 19 18 18 18 19 19 19 19 18 18 17 16 15 15 15 16 16 16 16 16 16 16 16 15 15 15 16 15 15 15 16 16
21 21 21 21 20 19 19 19 19 19 19 18 18 18 19 19 19 19 19 19 18 18 17 16 16 16 16 17 17 17 16 16 16 16 16 16 16 16 16 16 15 15 15
21 21 21 21 20 19 18 19 19 19 19 19 19 19 19 19 19 19 20 19 19 19 18 18 17 17 17 17 17 17 16 16 16 16 17 17 17 17 17 16 16 15 15
21 21 21 21 21 20 18 18 18 18 18 19 19 19 19 19 19 20 20 20 20 20 19 19 18 18 18 18 17 17 17 17 17 17 17 18 18 18 17 16 16 16 16
22 22 22 22 21 21 20 20 20 19 20 20 20 21 21 20 20 21 20 21 21 21 20 20 19 19 18 18 18 18 18 18 17 17 18 18 18 18 17 16 16 16 16
22 22 22 22 22 22 22 22 22 22 22 22 21 21 21 21 21 21 21 21 21 21 21 20 19 19 19 19 19 19 19 19 19 18 19 19 19 19 18 18 17 17 17
23 23 22 22 23 23 23 23 23 23 24 23 23 22 22 21 21 21 21 21 21 21 21 20 20 19 19 19 19 19 19 19 20 20 20 20 21 21 20 19 20 20 19
23 23 23 23 23 24 24 24 24 24 25 24 23 23 22 21 21 21 21 22 22 22 21 21 20 20 20 20 20 20 20 20 20 21 21 21 22 22 23 22 21 21 21
23 23 24 24 24 25 25 25 24 24 25 24 24 23 22 21 21 22 22 23 23 23 22 22 21 21 21 21 21 21 21 21 22 22 22 22 23 23 23 23 22 22 22
23 24 24 25 25 25 25 25 24 25 25 25 25 24 23 23 23 23 23 23 23 24 24 23 22 23 22 22 22 22 22 22 22 23 23 23 23 23 23 23 23 22 23
25 25 26 26 25 24 25 25 26 26 26 26 25 24 24 24 24 24 24 24 24 24 24 24 23 24 23 23 23 24 24 23 23 23 23 23 23 24 23 23 23 23 23
Wind_Direction
278 277 274 274 275 276 275 272 273 275 276 277 278 278 280 281 281 278 279 277 280 281 282 281 284 285 284 285 286 283 281 281 279 278 279 280 280 278 275 275 274 271 269
281 281 276 274 275 277 278 276 275 275 276 277 277 281 286 285 282 279 280 281 282 282 283 284 287 289 287 287 286 283 282 280 278 278 277 278 278 276 274 273 275 271 269
281 279 277 275 276 277 279 280 278 275 274 277 278 279 282 282 280 278 278 278 278 279 282 286 289 289 290 288 286 284 282 279 277 278 278 277 275 271 272 274 274 269 268
282 276 275 275 276 277 278 278 276 274 274 276 279 279 280 283 280 278 278 278 277 278 282 286 288 287 288 288 285 286 284 278 275 277 277 273 270 268 272 273 271 269 268
283 278 276 275 276 276 277 278 276 274 275 277 279 279 280 283 283 282 283 282 280 280 281 283 286 287 287 287 288 288 285 282 278 277 275 270 268 268 270 267 267 267 266
282 278 279 279 276 274 275 277 278 276 275 277 278 279 279 281 283 284 285 285 284 283 283 283 285 286 286 286 288 288 286 282 280 277 275 273 271 268 266 265 265 264 262
288 280 277 277 275 274 274 275 276 277 277 277 278 279 280 282 281 284 285 284 284 285 284 284 284 284 285 285 286 285 284 281 279 278 277 278 274 267 263 263 264 264 263
287 283 278 274 275 275 275 274 275 274 276 276 278 280 281 282 283 284 284 285 286 286 285 285 284 283 284 283 283 281 280 280 279 278 278 275 272 266 265 266 263 264 265
282 282 280 276 274 273 273 274 274 273 274 277 278 280 281 282 285 287 289 287 287 286 286 285 284 283 282 280 278 277 279 280 278 278 278 275 271 269 269 268 264 265 263
283 284 281 279 276 274 272 270 271 272 274 276 278 280 282 283 284 285 287 288 286 285 285 284 283 282 280 278 275 275 278 283 279 276 276 274 272 269 269 268 268 269 268
285 287 285 283 279 276 273 269 268 270 274 276 278 279 281 282 285 286 286 285 285 284 284 285 284 280 279 278 276 274 276 277 278 276 274 270 270 268 267 267 271 274 273
286 288 287 282 279 274 273 271 270 270 273 276 277 278 280 281 284 285 284 282 281 281 282 283 283 279 278 276 274 271 272 273 276 275 271 269 268 268 270 270 271 272 272
287 287 287 285 283 276 273 270 271 272 273 275 277 278 280 283 284 283 281 279 279 280 280 279 279 277 276 276 271 268 271 270 274 274 270 269 269 269 269 271 270 270 270
288 287 287 286 284 281 276 271 269 272 273 274 278 281 282 283 283 281 279 278 278 280 279 279 278 275 274 274 272 267 268 268 268 274 276 269 270 269 269 271 270 269 269
287 287 287 286 285 282 277 272 268 270 271 273 276 280 282 282 281 279 278 278 277 278 278 278 277 276 277 277 275 268 264 265 269 274 274 274 276 275 274 272 268 270 271
285 286 286 287 285 281 276 272 269 269 272 274 277 279 282 281 277 275 276 277 276 276 276 274 275 277 278 277 275 272 266 267 272 273 272 275 278 282 281 278 273 270 270
284 283 284 285 287 281 277 273 270 270 271 272 274 278 281 280 276 274 275 276 275 273 273 273 276 276 275 275 274 271 267 269 273 274 274 276 279 280 280 280 280 276 270
285 285 284 285 285 283 280 276 271 270 271 271 274 278 280 280 277 276 276 275 275 274 274 275 276 277 275 273 271 268 269 269 273 273 273 276 277 277 277 277 277 276 273
286 285 284 283 281 280 280 276 272 271 272 272 274 277 280 279 278 277 276 276 276 275 275 275 276 276 274 271 268 268 269 269 272 272 273 275 276 277 276 275 274 274 273
287 286 285 283 282 279 277 276 273 273 273 273 275 276 280 278 277 276 276 277 277 275 273 273 274 274 272 270 269 269 270 270 272 273 272 273 274 275 275 272 273 274 273
286 285 285 283 281 279 277 275 274 274 274 274 275 276 277 277 275 274 274 275 277 276 274 272 273 273 271 270 269 270 270 269 270 272 271 269 271 273 274 273 271 273 273
285 284 283 282 279 278 277 277 275 275 276 275 275 276 277 276 275 274 273 273 274 274 274 272 271 272 271 270 270 271 271 270 269 271 270 268 270 272 273 276 273 271 271
286 284 282 281 279 277 277 276 275 276 276 277 275 275 276 276 273 272 272 272 273 273 272 272 272 271 269 269 269 271 271 272 271 270 271 270 271 272 273 275 274 271 270
287 286 285 283 281 279 278 276 275 276 275 275 274 274 274 274 273 272 272 272 271 271 271 271 271 271 269 268 269 271 271 272 272 271 271 271 271 271 272 272 272 270 270
289 288 287 285 282 281 278 276 276 275 275 275 274 273 273 272 272 272 271 271 270 270 270 270 271 270 270 269 270 272 273 274 273 272 273 273 272 272 271 270 270 270 270
288 288 287 286 284 281 279 277 275 274 275 274 273 272 270 270 271 270 270 270 270 270 270 270 270 270 270 270 271 271 271 273 273 272 272 272 272 272 270 270 269 268 269